RYR496E LEZL-GCFV

Flight info

Callsign RYR496E
Flight time 2h 14m
Altitude 35000
Route CLANA N857 KORNO UN857 TERTO
Aircraft B738/M-SDE2E3FGHIRWXY/LB1

Departure

Time 2026-05-08 19:01
Airport Seville Airport (LEZL)

Arrival

Time 2026-05-08 21:16
Airport Fuerteventura Airport (GCFV)
Time Latitude Longitude Altitude Speed Heading
2026-05-08 18:37 37.42299 -5.89486 93 ft 0 kts 98°
2026-05-08 18:54 37.42297 -5.89483 95 ft 1 kts 127°
2026-05-08 18:54 37.42292 -5.89484 94 ft 1 kts 181°
2026-05-08 18:54 37.42283 -5.89496 93 ft 4 kts 225°
2026-05-08 18:54 37.42253 -5.89503 94 ft 6 kts 154°
2026-05-08 18:55 37.42158 -5.89442 96 ft 10 kts 213°
2026-05-08 18:55 37.42097 -5.89491 97 ft 11 kts 173°
2026-05-08 18:55 37.42035 -5.89423 97 ft 13 kts 133°
2026-05-08 18:56 37.41984 -5.89336 99 ft 13 kts 99°
2026-05-08 18:56 37.41983 -5.89216 99 ft 14 kts 89°
2026-05-08 18:56 37.41983 -5.89084 100 ft 16 kts 90°
2026-05-08 18:56 37.41984 -5.88938 101 ft 17 kts 89°
2026-05-08 18:57 37.41984 -5.88782 102 ft 18 kts 90°
2026-05-08 18:57 37.41985 -5.88681 102 ft 17 kts 90°
2026-05-08 18:57 37.41985 -5.88479 103 ft 18 kts 89°
2026-05-08 18:57 37.41986 -5.88316 104 ft 19 kts 90°
2026-05-08 18:58 37.41987 -5.88138 105 ft 21 kts 89°
2026-05-08 18:58 37.41988 -5.87946 106 ft 22 kts 90°
2026-05-08 18:58 37.41988 -5.87754 107 ft 22 kts 90°
2026-05-08 18:58 37.41989 -5.87595 108 ft 18 kts 89°
2026-05-08 18:59 37.41990 -5.87443 111 ft 13 kts 90°
2026-05-08 18:59 37.41980 -5.87349 112 ft 3 kts 108°
2026-05-08 18:59 37.41965 -5.87320 111 ft 5 kts 130°
2026-05-08 18:59 37.41927 -5.87305 115 ft 6 kts 177°
2026-05-08 19:00 37.41887 -5.87327 114 ft 8 kts 214°
2026-05-08 19:00 37.41848 -5.87387 113 ft 11 kts 238°
2026-05-08 19:00 37.41805 -5.87449 117 ft 8 kts 240°
2026-05-08 19:00 37.41801 -5.87513 116 ft 0 kts 270°
2026-05-08 19:01 37.41800 -5.87608 114 ft 38 kts 269°
2026-05-08 19:01 37.41796 -5.88268 105 ft 110 kts 269°
2026-05-08 19:01 37.41791 -5.89481 164 ft 160 kts 267°
2026-05-08 19:01 37.41801 -5.90849 1016 ft 151 kts 268°
2026-05-08 19:02 37.42026 -5.92175 1704 ft 167 kts 292°
2026-05-08 19:02 37.42888 -5.93386 2033 ft 204 kts 311°
2026-05-08 19:02 37.43733 -5.94937 2244 ft 226 kts 288°
2026-05-08 19:02 37.44061 -5.96932 2506 ft 244 kts 270°
2026-05-08 19:03 37.44133 -5.99141 3028 ft 259 kts 268°
2026-05-08 19:03 37.44210 -6.01431 3885 ft 262 kts 268°
2026-05-08 19:03 37.44040 -6.03679 4789 ft 259 kts 246°
2026-05-08 19:03 37.43109 -6.05578 5606 ft 255 kts 221°
2026-05-08 19:04 37.41639 -6.06791 6422 ft 254 kts 199°
2026-05-08 19:04 37.39916 -6.07209 7286 ft 254 kts 181°
2026-05-08 19:04 37.38144 -6.07121 8153 ft 256 kts 178°
2026-05-08 19:04 37.36355 -6.06966 8978 ft 260 kts 178°
2026-05-08 19:05 37.34537 -6.06801 9807 ft 263 kts 178°
2026-05-08 19:05 37.32680 -6.06640 10374 ft 276 kts 179°
2026-05-08 19:05 37.30675 -6.06475 10548 ft 301 kts 179°
2026-05-08 19:05 37.28504 -6.06301 10732 ft 324 kts 179°
2026-05-08 19:06 37.26190 -6.06116 11088 ft 339 kts 179°
2026-05-08 19:06 37.23823 -6.05927 11780 ft 342 kts 180°
2026-05-08 19:06 37.21443 -6.05739 12571 ft 343 kts 180°
2026-05-08 19:06 37.19051 -6.05552 13340 ft 345 kts 181°
2026-05-08 19:07 37.16658 -6.05545 14026 ft 343 kts 192°
2026-05-08 19:07 37.14384 -6.06367 14696 ft 340 kts 205°
2026-05-08 19:07 37.12372 -6.07902 15393 ft 339 kts 218°
2026-05-08 19:07 37.10552 -6.09787 16080 ft 341 kts 220°
2026-05-08 19:08 37.08748 -6.11732 16731 ft 343 kts 220°
2026-05-08 19:08 37.06926 -6.13679 17365 ft 345 kts 219°
2026-05-08 19:08 37.05084 -6.15616 18006 ft 347 kts 219°
2026-05-08 19:08 37.03246 -6.17531 18559 ft 349 kts 219°
2026-05-08 19:09 37.01376 -6.19488 19091 ft 352 kts 219°
2026-05-08 19:09 36.99502 -6.21473 19633 ft 354 kts 219°
2026-05-08 19:09 36.97593 -6.23503 20171 ft 356 kts 220°
2026-05-08 19:09 36.95701 -6.25514 20687 ft 359 kts 220°
2026-05-08 19:10 36.93793 -6.27542 21191 ft 361 kts 220°
2026-05-08 19:10 36.91901 -6.29550 21678 ft 363 kts 220°
2026-05-08 19:10 36.89967 -6.31599 22176 ft 365 kts 220°
2026-05-08 19:10 36.88024 -6.33657 22660 ft 367 kts 220°
2026-05-08 19:11 36.86067 -6.35727 23123 ft 370 kts 220°
2026-05-08 19:11 36.84095 -6.37811 23551 ft 373 kts 220°
2026-05-08 19:11 36.82112 -6.39905 23961 ft 374 kts 220°
2026-05-08 19:11 36.80129 -6.41999 24409 ft 374 kts 220°
2026-05-08 19:12 36.78145 -6.44091 24834 ft 374 kts 220°
2026-05-08 19:12 36.76155 -6.46189 25232 ft 375 kts 220°
2026-05-08 19:12 36.74160 -6.48290 25625 ft 376 kts 220°
2026-05-08 19:12 36.72161 -6.50394 25998 ft 377 kts 220°
2026-05-08 19:13 36.70153 -6.52506 26359 ft 378 kts 220°
2026-05-08 19:13 36.68142 -6.54619 26718 ft 379 kts 220°
2026-05-08 19:13 36.66125 -6.56738 27075 ft 380 kts 220°
2026-05-08 19:13 36.64103 -6.58860 27418 ft 381 kts 220°
2026-05-08 19:14 36.62080 -6.60982 27829 ft 379 kts 220°
2026-05-08 19:14 36.60073 -6.63086 28397 ft 375 kts 220°
2026-05-08 19:14 36.58093 -6.65160 29001 ft 370 kts 220°
2026-05-08 19:14 36.56130 -6.67215 29533 ft 367 kts 220°
2026-05-08 19:15 36.54208 -6.69227 29988 ft 365 kts 220°
2026-05-08 19:15 36.52270 -6.71252 30370 ft 363 kts 220°
2026-05-08 19:15 36.50339 -6.73267 30761 ft 361 kts 220°
2026-05-08 19:15 36.48410 -6.75263 31135 ft 360 kts 220°
2026-05-08 19:16 36.46489 -6.77242 31497 ft 358 kts 220°
2026-05-08 19:16 36.44574 -6.79212 31858 ft 357 kts 220°
2026-05-08 19:16 36.42667 -6.81172 32218 ft 355 kts 220°
2026-05-08 19:16 36.40771 -6.83122 32583 ft 353 kts 220°
2026-05-08 19:17 36.38883 -6.85063 32932 ft 352 kts 220°
2026-05-08 19:17 36.37002 -6.86996 33267 ft 350 kts 220°
2026-05-08 19:17 36.35130 -6.88920 33609 ft 349 kts 220°
2026-05-08 19:17 36.33262 -6.90838 33947 ft 348 kts 220°
2026-05-08 19:18 36.31400 -6.92749 34179 ft 348 kts 220°
2026-05-08 19:18 36.29536 -6.94660 34367 ft 349 kts 220°
2026-05-08 19:18 36.27664 -6.96579 34571 ft 349 kts 220°
2026-05-08 19:18 36.25796 -6.98493 34805 ft 349 kts 220°
2026-05-08 19:19 36.23920 -7.00413 34863 ft 352 kts 220°
2026-05-08 19:19 36.20153 -7.04266 34882 ft 350 kts 220°
2026-05-08 19:20 36.16418 -7.08080 34888 ft 347 kts 220°
2026-05-08 19:20 36.12711 -7.11862 34891 ft 344 kts 220°
2026-05-08 19:21 36.09020 -7.15622 34890 ft 343 kts 220°
2026-05-08 19:21 36.05338 -7.19368 34892 ft 343 kts 220°
2026-05-08 19:22 36.01649 -7.23118 34890 ft 344 kts 220°
2026-05-08 19:22 35.97947 -7.26875 34891 ft 345 kts 220°
2026-05-08 19:23 35.94229 -7.30645 34890 ft 347 kts 220°
2026-05-08 19:23 35.90488 -7.34433 34892 ft 349 kts 220°
2026-05-08 19:24 35.86732 -7.38233 34892 ft 350 kts 220°
2026-05-08 19:24 35.82960 -7.42040 34892 ft 351 kts 219°
2026-05-08 19:25 35.79189 -7.45812 34893 ft 352 kts 219°
2026-05-08 19:25 35.75388 -7.49601 34892 ft 352 kts 219°
2026-05-08 19:26 35.71586 -7.53389 34893 ft 351 kts 219°
2026-05-08 19:26 35.67789 -7.57169 34891 ft 351 kts 219°
2026-05-08 19:27 35.63997 -7.60941 34894 ft 350 kts 219°
2026-05-08 19:27 35.60214 -7.64699 34890 ft 349 kts 219°
2026-05-08 19:28 35.56436 -7.68448 34891 ft 349 kts 219°
2026-05-08 19:28 35.53274 -7.71581 34890 ft 348 kts 219°
2026-05-08 19:29 35.49530 -7.75288 34892 ft 348 kts 219°
2026-05-08 19:29 35.45766 -7.79010 34892 ft 348 kts 219°
2026-05-08 19:30 35.42002 -7.82726 34890 ft 347 kts 219°
2026-05-08 19:30 35.38250 -7.86458 34891 ft 347 kts 219°
2026-05-08 19:31 35.34507 -7.90204 34891 ft 347 kts 220°
2026-05-08 19:31 35.30764 -7.93947 34891 ft 348 kts 220°
2026-05-08 19:32 35.27015 -7.97688 34890 ft 348 kts 220°
2026-05-08 19:32 35.23260 -8.01430 34891 ft 348 kts 220°
2026-05-08 19:33 35.19503 -8.05169 34891 ft 348 kts 220°
2026-05-08 19:33 35.15741 -8.08908 34890 ft 349 kts 220°
2026-05-08 19:34 35.11976 -8.12645 34892 ft 349 kts 220°
2026-05-08 19:34 35.08209 -8.16379 34889 ft 349 kts 220°
2026-05-08 19:35 35.04441 -8.20111 34888 ft 349 kts 220°
2026-05-08 19:35 35.00674 -8.23836 34888 ft 349 kts 220°
2026-05-08 19:36 34.96907 -8.27557 34887 ft 348 kts 220°
2026-05-08 19:36 34.93164 -8.31249 34887 ft 348 kts 220°
2026-05-08 19:37 34.89400 -8.34959 34891 ft 348 kts 220°
2026-05-08 19:37 34.85634 -8.38665 34889 ft 348 kts 220°
2026-05-08 19:38 34.81873 -8.42362 34893 ft 347 kts 220°
2026-05-08 19:38 34.78114 -8.46053 34893 ft 347 kts 220°
2026-05-08 19:39 34.74352 -8.49742 34891 ft 347 kts 220°
2026-05-08 19:39 34.70593 -8.53424 34888 ft 347 kts 220°
2026-05-08 19:40 34.66835 -8.57101 34890 ft 347 kts 220°
2026-05-08 19:40 34.63078 -8.60771 34891 ft 346 kts 220°
2026-05-08 19:41 34.59322 -8.64437 34890 ft 346 kts 220°
2026-05-08 19:41 34.55567 -8.68098 34891 ft 346 kts 220°
2026-05-08 19:42 34.51814 -8.71752 34891 ft 346 kts 220°
2026-05-08 19:42 34.48063 -8.75401 34892 ft 346 kts 220°
2026-05-08 19:43 34.44309 -8.79046 34889 ft 346 kts 220°
2026-05-08 19:43 34.40549 -8.82671 34889 ft 345 kts 220°
2026-05-08 19:44 34.36785 -8.86287 34892 ft 345 kts 220°
2026-05-08 19:44 34.33019 -8.89903 34890 ft 345 kts 220°
2026-05-08 19:45 34.29256 -8.93512 34893 ft 345 kts 220°
2026-05-08 19:45 34.25493 -8.97118 34892 ft 345 kts 220°
2026-05-08 19:46 34.21730 -9.00720 34888 ft 345 kts 220°
2026-05-08 19:46 34.16084 -9.06118 34890 ft 345 kts 220°
2026-05-08 19:47 34.12321 -9.09710 34893 ft 345 kts 220°
2026-05-08 19:47 34.08556 -9.13299 34891 ft 345 kts 220°
2026-05-08 19:48 34.04818 -9.16859 34892 ft 345 kts 220°
2026-05-08 19:48 34.01050 -9.20443 34892 ft 345 kts 220°
2026-05-08 19:49 33.97258 -9.24046 34892 ft 345 kts 220°
2026-05-08 19:49 33.93515 -9.27597 34891 ft 345 kts 220°
2026-05-08 19:50 33.89746 -9.31170 34893 ft 345 kts 220°
2026-05-08 19:50 33.85977 -9.34738 34895 ft 345 kts 220°
2026-05-08 19:51 33.82206 -9.38304 34899 ft 345 kts 220°
2026-05-08 19:51 33.78434 -9.41868 34898 ft 345 kts 220°
2026-05-08 19:52 33.74663 -9.45426 34898 ft 345 kts 220°
2026-05-08 19:52 33.70891 -9.48980 34895 ft 344 kts 220°
2026-05-08 19:53 33.67121 -9.52529 34899 ft 344 kts 220°
2026-05-08 19:53 33.63349 -9.56075 34901 ft 344 kts 221°
2026-05-08 19:54 33.59579 -9.59616 34900 ft 344 kts 221°
2026-05-08 19:54 33.55810 -9.63152 34902 ft 344 kts 221°
2026-05-08 19:55 33.52041 -9.66683 34904 ft 344 kts 221°
2026-05-08 19:55 33.48274 -9.70209 34905 ft 344 kts 221°
2026-05-08 19:56 33.44508 -9.73730 34907 ft 343 kts 221°
2026-05-08 19:56 33.40743 -9.77246 34901 ft 343 kts 221°
2026-05-08 19:57 33.36977 -9.80759 34904 ft 343 kts 221°
2026-05-08 19:57 33.33214 -9.84265 34909 ft 343 kts 221°
2026-05-08 19:58 33.29446 -9.87773 34910 ft 343 kts 221°
2026-05-08 19:58 33.25679 -9.91275 34906 ft 343 kts 221°
2026-05-08 19:59 33.21912 -9.94773 34909 ft 343 kts 221°
2026-05-08 19:59 33.18167 -9.98247 34908 ft 343 kts 221°
2026-05-08 20:00 33.14398 -10.01740 34911 ft 343 kts 221°
2026-05-08 20:00 33.10625 -10.05232 34912 ft 343 kts 221°
2026-05-08 20:01 33.06850 -10.08723 34910 ft 343 kts 221°
2026-05-08 20:01 33.03080 -10.12204 34915 ft 342 kts 221°
2026-05-08 20:02 32.99317 -10.15673 34922 ft 342 kts 221°
2026-05-08 20:02 32.95552 -10.19135 34916 ft 342 kts 221°
2026-05-08 20:03 32.91787 -10.22594 34912 ft 342 kts 221°
2026-05-08 20:03 32.88021 -10.26050 34917 ft 342 kts 221°
2026-05-08 20:04 32.84252 -10.29507 34918 ft 342 kts 221°
2026-05-08 20:04 32.80475 -10.32967 34921 ft 343 kts 221°
2026-05-08 20:05 32.76689 -10.36431 34921 ft 344 kts 221°
2026-05-08 20:05 32.72898 -10.39896 34920 ft 344 kts 221°
2026-05-08 20:06 32.69123 -10.43343 34924 ft 345 kts 221°
2026-05-08 20:06 32.65317 -10.46814 34922 ft 345 kts 221°
2026-05-08 20:07 32.61505 -10.50288 34921 ft 346 kts 221°
2026-05-08 20:07 32.57689 -10.53760 34927 ft 346 kts 221°
2026-05-08 20:08 32.53869 -10.57232 34928 ft 346 kts 221°
2026-05-08 20:08 32.50049 -10.60701 34928 ft 346 kts 221°
2026-05-08 20:09 32.46225 -10.64169 34928 ft 346 kts 221°
2026-05-08 20:09 32.42402 -10.67633 34930 ft 346 kts 221°
2026-05-08 20:10 32.38578 -10.71093 34929 ft 346 kts 221°
2026-05-08 20:10 32.34753 -10.74552 34930 ft 346 kts 222°
2026-05-08 20:11 32.30925 -10.78008 34936 ft 346 kts 222°
2026-05-08 20:11 32.27098 -10.81461 34935 ft 346 kts 222°
2026-05-08 20:12 32.23269 -10.84911 34929 ft 346 kts 222°
2026-05-08 20:12 32.19439 -10.88359 34940 ft 346 kts 222°
2026-05-08 20:13 32.15607 -10.91804 34933 ft 346 kts 222°
2026-05-08 20:13 32.11771 -10.95250 34937 ft 347 kts 222°
2026-05-08 20:14 32.07933 -10.98694 34940 ft 347 kts 222°
2026-05-08 20:14 32.04739 -11.01557 34936 ft 347 kts 222°
2026-05-08 20:15 32.00896 -11.04998 34943 ft 347 kts 222°
2026-05-08 20:15 31.97047 -11.08441 34944 ft 347 kts 222°
2026-05-08 20:16 31.93196 -11.11881 34942 ft 348 kts 222°
2026-05-08 20:16 31.89344 -11.15320 34945 ft 348 kts 223°
2026-05-08 20:17 31.85489 -11.18758 34945 ft 348 kts 223°
2026-05-08 20:17 31.81632 -11.22194 34947 ft 348 kts 223°
2026-05-08 20:18 31.77771 -11.25630 34948 ft 348 kts 223°
2026-05-08 20:18 31.73909 -11.29064 34946 ft 348 kts 223°
2026-05-08 20:19 31.70051 -11.32504 34952 ft 348 kts 223°
2026-05-08 20:19 31.66193 -11.35942 34948 ft 348 kts 223°
2026-05-08 20:20 31.62335 -11.39377 34951 ft 348 kts 223°
2026-05-08 20:20 31.58477 -11.42809 34950 ft 348 kts 223°
2026-05-08 20:21 31.54644 -11.46214 34953 ft 348 kts 223°
2026-05-08 20:21 31.50783 -11.49641 34956 ft 348 kts 223°
2026-05-08 20:22 31.46922 -11.53064 34956 ft 348 kts 224°
2026-05-08 20:22 31.43056 -11.56488 34956 ft 348 kts 224°
2026-05-08 20:23 31.39188 -11.59910 34954 ft 348 kts 224°
2026-05-08 20:23 31.35319 -11.63329 34958 ft 349 kts 224°
2026-05-08 20:24 31.31448 -11.66746 34961 ft 349 kts 224°
2026-05-08 20:24 31.27575 -11.70161 34959 ft 349 kts 224°
2026-05-08 20:25 31.23700 -11.73575 34958 ft 349 kts 224°
2026-05-08 20:25 31.19825 -11.76985 34960 ft 349 kts 224°
2026-05-08 20:26 31.15946 -11.80396 34963 ft 349 kts 224°
2026-05-08 20:26 31.12067 -11.83802 34963 ft 349 kts 224°
2026-05-08 20:27 31.08183 -11.87209 34963 ft 349 kts 224°
2026-05-08 20:27 31.04298 -11.90613 34964 ft 349 kts 225°
2026-05-08 20:28 31.00409 -11.94018 34968 ft 350 kts 225°
2026-05-08 20:28 30.96545 -11.97397 34967 ft 350 kts 225°
2026-05-08 20:29 30.92652 -12.00798 34970 ft 350 kts 225°
2026-05-08 20:29 30.88755 -12.04198 34969 ft 350 kts 225°
2026-05-08 20:30 30.84857 -12.07597 34969 ft 350 kts 225°
2026-05-08 20:30 30.80957 -12.10993 34969 ft 350 kts 225°
2026-05-08 20:31 30.77053 -12.14390 34968 ft 351 kts 225°
2026-05-08 20:31 30.73147 -12.17785 34970 ft 351 kts 225°
2026-05-08 20:32 30.69238 -12.21179 34974 ft 351 kts 225°
2026-05-08 20:32 30.65329 -12.24570 34977 ft 351 kts 225°
2026-05-08 20:33 30.61413 -12.27964 34976 ft 351 kts 225°
2026-05-08 20:33 30.57497 -12.31354 34976 ft 351 kts 226°
2026-05-08 20:34 30.53576 -12.34745 34978 ft 352 kts 226°
2026-05-08 20:35 30.47682 -12.39826 34980 ft 352 kts 226°
2026-05-08 20:35 30.43743 -12.43209 34985 ft 353 kts 226°
2026-05-08 20:36 30.39801 -12.46592 34977 ft 353 kts 226°
2026-05-08 20:36 30.35854 -12.49978 34984 ft 353 kts 226°
2026-05-08 20:37 30.31903 -12.53363 34987 ft 353 kts 226°
2026-05-08 20:37 30.27949 -12.56749 34990 ft 354 kts 226°
2026-05-08 20:38 30.23987 -12.60138 34988 ft 354 kts 226°
2026-05-08 20:38 30.20023 -12.63525 34988 ft 355 kts 226°
2026-05-08 20:39 30.16054 -12.66914 34992 ft 355 kts 226°
2026-05-08 20:39 30.12080 -12.70302 34991 ft 355 kts 226°
2026-05-08 20:40 30.07979 -12.73432 34978 ft 347 kts 221°
2026-05-08 20:40 30.03799 -12.76051 34985 ft 340 kts 220°
2026-05-08 20:41 29.99659 -12.78640 34689 ft 339 kts 220°
2026-05-08 20:41 29.97600 -12.79935 34316 ft 335 kts 221°
2026-05-08 20:41 29.95571 -12.81216 33998 ft 330 kts 221°
2026-05-08 20:41 29.93566 -12.82489 33591 ft 327 kts 221°
2026-05-08 20:42 29.91584 -12.83750 33210 ft 324 kts 221°
2026-05-08 20:42 29.89624 -12.84998 32846 ft 320 kts 221°
2026-05-08 20:42 29.87691 -12.86229 32496 ft 316 kts 221°
2026-05-08 20:42 29.85776 -12.87450 32143 ft 313 kts 221°
2026-05-08 20:43 29.83881 -12.88657 31800 ft 310 kts 221°
2026-05-08 20:43 29.82006 -12.89852 31461 ft 307 kts 221°
2026-05-08 20:43 29.80149 -12.91034 31127 ft 304 kts 221°
2026-05-08 20:43 29.78311 -12.92205 30798 ft 301 kts 221°
2026-05-08 20:44 29.76486 -12.93367 30470 ft 298 kts 221°
2026-05-08 20:44 29.74677 -12.94517 30145 ft 296 kts 221°
2026-05-08 20:44 29.72885 -12.95657 29777 ft 293 kts 221°
2026-05-08 20:44 29.71110 -12.96785 29437 ft 289 kts 221°
2026-05-08 20:45 29.69359 -12.97895 29099 ft 285 kts 221°
2026-05-08 20:45 29.68213 -12.98622 28884 ft 283 kts 221°
2026-05-08 20:45 29.65923 -13.00077 28440 ft 280 kts 221°
2026-05-08 20:45 29.64227 -13.01154 28103 ft 278 kts 221°
2026-05-08 20:46 29.62531 -13.02233 27799 ft 282 kts 221°
2026-05-08 20:46 29.60777 -13.03358 27481 ft 296 kts 220°
2026-05-08 20:46 29.58955 -13.04522 27117 ft 300 kts 220°
2026-05-08 20:46 29.57131 -13.05673 26759 ft 298 kts 220°
2026-05-08 20:47 29.55345 -13.06797 26418 ft 295 kts 220°
2026-05-08 20:47 29.53532 -13.07939 26077 ft 292 kts 220°
2026-05-08 20:47 29.51759 -13.09058 25750 ft 289 kts 220°
2026-05-08 20:47 29.50005 -13.10166 25421 ft 287 kts 220°
2026-05-08 20:48 29.48264 -13.11266 25095 ft 285 kts 219°
2026-05-08 20:48 29.46535 -13.12359 24775 ft 282 kts 219°
2026-05-08 20:48 29.44843 -13.13428 24456 ft 281 kts 219°
2026-05-08 20:48 29.43139 -13.14506 24137 ft 279 kts 219°
2026-05-08 20:49 29.41446 -13.15575 23825 ft 277 kts 219°
2026-05-08 20:49 29.39760 -13.16639 23499 ft 276 kts 219°
2026-05-08 20:49 29.38082 -13.17696 23117 ft 274 kts 219°
2026-05-08 20:49 29.36407 -13.18731 22792 ft 274 kts 216°
2026-05-08 20:50 29.34587 -13.19452 22586 ft 278 kts 207°
2026-05-08 20:50 29.32714 -13.20030 22265 ft 279 kts 207°
2026-05-08 20:50 29.30845 -13.20601 21959 ft 279 kts 207°
2026-05-08 20:50 29.28959 -13.21192 21654 ft 285 kts 207°
2026-05-08 20:51 29.27009 -13.21814 21342 ft 296 kts 207°
2026-05-08 20:51 29.25016 -13.22447 20998 ft 297 kts 206°
2026-05-08 20:51 29.23028 -13.23074 20661 ft 295 kts 206°
2026-05-08 20:51 29.21055 -13.23699 20334 ft 293 kts 206°
2026-05-08 20:52 29.19100 -13.24320 20016 ft 291 kts 206°
2026-05-08 20:52 29.17154 -13.24939 19694 ft 289 kts 206°
2026-05-08 20:52 29.15223 -13.25554 19389 ft 287 kts 206°
2026-05-08 20:52 29.13301 -13.26167 19072 ft 286 kts 206°
2026-05-08 20:53 29.11388 -13.26777 18754 ft 285 kts 206°
2026-05-08 20:53 29.09483 -13.27384 18444 ft 284 kts 206°
2026-05-08 20:53 29.07583 -13.27989 18101 ft 283 kts 206°
2026-05-08 20:53 29.05689 -13.28592 17760 ft 282 kts 206°
2026-05-08 20:54 29.03807 -13.29191 17439 ft 280 kts 206°
2026-05-08 20:54 29.01936 -13.29786 17125 ft 278 kts 205°
2026-05-08 20:54 29.00081 -13.30375 16819 ft 276 kts 205°
2026-05-08 20:54 28.98240 -13.30960 16524 ft 274 kts 205°
2026-05-08 20:55 28.96410 -13.31541 16232 ft 272 kts 205°
2026-05-08 20:55 28.94591 -13.32119 15935 ft 270 kts 205°
2026-05-08 20:55 28.92784 -13.32693 15649 ft 269 kts 205°
2026-05-08 20:55 28.90989 -13.33264 15356 ft 267 kts 205°
2026-05-08 20:56 28.89224 -13.33824 15076 ft 266 kts 205°
2026-05-08 20:56 28.87446 -13.34388 14793 ft 265 kts 205°
2026-05-08 20:56 28.85650 -13.34959 14507 ft 264 kts 205°
2026-05-08 20:56 28.83906 -13.35512 14224 ft 263 kts 204°
2026-05-08 20:57 28.82143 -13.36071 13929 ft 263 kts 204°
2026-05-08 20:57 28.80382 -13.36629 13616 ft 262 kts 204°
2026-05-08 20:57 28.78626 -13.37184 13297 ft 262 kts 204°
2026-05-08 20:57 28.76874 -13.37739 12998 ft 261 kts 204°
2026-05-08 20:58 28.75122 -13.38293 12739 ft 263 kts 204°
2026-05-08 20:58 28.73336 -13.38861 12484 ft 270 kts 204°
2026-05-08 20:58 28.71502 -13.39442 12212 ft 276 kts 203°
2026-05-08 20:58 28.69640 -13.40030 11926 ft 278 kts 203°
2026-05-08 20:59 28.67782 -13.40614 11640 ft 276 kts 203°
2026-05-08 20:59 28.65937 -13.41194 11368 ft 274 kts 203°
2026-05-08 20:59 28.64110 -13.41769 11097 ft 271 kts 203°
2026-05-08 20:59 28.62306 -13.42364 10825 ft 268 kts 205°
2026-05-08 21:00 28.60538 -13.43007 10563 ft 266 kts 205°
2026-05-08 21:00 28.58788 -13.43653 10302 ft 263 kts 205°
2026-05-08 21:00 28.57055 -13.44288 10034 ft 258 kts 205°
2026-05-08 21:00 28.55358 -13.44906 9769 ft 255 kts 205°
2026-05-08 21:01 28.53676 -13.45517 9490 ft 253 kts 205°
2026-05-08 21:01 28.52007 -13.46122 9228 ft 251 kts 205°
2026-05-08 21:01 28.50429 -13.46872 8962 ft 241 kts 221°
2026-05-08 21:01 28.49230 -13.48100 8971 ft 230 kts 231°
2026-05-08 21:02 28.48146 -13.49422 8966 ft 227 kts 232°
2026-05-08 21:02 28.47083 -13.50744 8963 ft 226 kts 232°
2026-05-08 21:02 28.46018 -13.52058 8964 ft 226 kts 232°
2026-05-08 21:02 28.44965 -13.53348 8967 ft 226 kts 232°
2026-05-08 21:03 28.43894 -13.54653 8961 ft 226 kts 232°
2026-05-08 21:03 28.42823 -13.55955 8966 ft 226 kts 232°
2026-05-08 21:03 28.41752 -13.57264 8959 ft 225 kts 234°
2026-05-08 21:03 28.41013 -13.58804 8883 ft 223 kts 254°
2026-05-08 21:04 28.40605 -13.60521 8743 ft 228 kts 258°
2026-05-08 21:04 28.40237 -13.62286 8566 ft 230 kts 258°
2026-05-08 21:04 28.39868 -13.64040 8388 ft 227 kts 258°
2026-05-08 21:04 28.39498 -13.65765 8208 ft 223 kts 258°
2026-05-08 21:05 28.39251 -13.66913 8093 ft 221 kts 258°
2026-05-08 21:05 28.38902 -13.68617 7936 ft 222 kts 264°
2026-05-08 21:05 28.39087 -13.70342 7756 ft 224 kts 290°
2026-05-08 21:05 28.39968 -13.71807 7588 ft 230 kts 315°
2026-05-08 21:06 28.41380 -13.72698 7410 ft 240 kts 340°
2026-05-08 21:06 28.43068 -13.72895 7235 ft 247 kts 355°
2026-05-08 21:06 28.44775 -13.72856 7044 ft 250 kts 357°
2026-05-08 21:06 28.46502 -13.72796 6841 ft 246 kts 356°
2026-05-08 21:07 28.48205 -13.72748 6642 ft 243 kts 356°
2026-05-08 21:07 28.49884 -13.72710 6448 ft 239 kts 356°
2026-05-08 21:07 28.51541 -13.72677 6253 ft 238 kts 356°
2026-05-08 21:07 28.53190 -13.72645 6057 ft 236 kts 356°
2026-05-08 21:08 28.54829 -13.72615 5869 ft 235 kts 356°
2026-05-08 21:08 28.56460 -13.72585 5679 ft 234 kts 356°
2026-05-08 21:08 28.58084 -13.72555 5519 ft 233 kts 356°
2026-05-08 21:08 28.59700 -13.72526 5337 ft 232 kts 356°
2026-05-08 21:09 28.61308 -13.72497 5169 ft 231 kts 356°
2026-05-08 21:09 28.62911 -13.72469 4995 ft 230 kts 356°
2026-05-08 21:09 28.64469 -13.72712 4779 ft 223 kts 330°
2026-05-08 21:09 28.65658 -13.73754 4635 ft 214 kts 307°
2026-05-08 21:10 28.66521 -13.75121 4479 ft 212 kts 302°
2026-05-08 21:10 28.67326 -13.76529 4310 ft 212 kts 301°
2026-05-08 21:10 28.68001 -13.78010 4126 ft 212 kts 284°
2026-05-08 21:10 28.68124 -13.79670 3994 ft 212 kts 268°
2026-05-08 21:11 28.67989 -13.81354 3834 ft 215 kts 265°
2026-05-08 21:11 28.67797 -13.83051 3648 ft 218 kts 257°
2026-05-08 21:11 28.66965 -13.84484 3476 ft 227 kts 218°
2026-05-08 21:11 28.65474 -13.85139 3335 ft 233 kts 199°
2026-05-08 21:12 28.63890 -13.85527 3105 ft 233 kts 193°
2026-05-08 21:12 28.62299 -13.85773 2938 ft 227 kts 188°
2026-05-08 21:12 28.60748 -13.85870 2732 ft 220 kts 185°
2026-05-08 21:12 28.59248 -13.85916 2541 ft 211 kts 186°
2026-05-08 21:13 28.57839 -13.85958 2386 ft 200 kts 185°
2026-05-08 21:13 28.56465 -13.86003 2236 ft 190 kts 185°
2026-05-08 21:13 28.55204 -13.86045 2085 ft 176 kts 186°
2026-05-08 21:13 28.54033 -13.86085 1895 ft 162 kts 185°
2026-05-08 21:14 28.52915 -13.86122 1715 ft 160 kts 185°
2026-05-08 21:14 28.51811 -13.86159 1462 ft 157 kts 184°
2026-05-08 21:14 28.50724 -13.86195 1230 ft 156 kts 186°
2026-05-08 21:14 28.49638 -13.86232 996 ft 155 kts 185°
2026-05-08 21:15 28.48567 -13.86275 731 ft 153 kts 184°
2026-05-08 21:15 28.47508 -13.86298 504 ft 151 kts 185°
2026-05-08 21:15 28.46457 -13.86335 262 ft 151 kts 185°
2026-05-08 21:15 28.45420 -13.86369 86 ft 142 kts 185°
2026-05-08 21:16 28.44526 -13.86403 55 ft 112 kts 182°
2026-05-08 21:16 28.43918 -13.86419 33 ft 67 kts 181°
2026-05-08 21:16 28.43588 -13.86506 31 ft 32 kts 212°
2026-05-08 21:16 28.43507 -13.86600 36 ft 13 kts 294°
2026-05-08 21:17 28.43590 -13.86624 39 ft 13 kts
2026-05-08 21:17 28.43679 -13.86621 39 ft 13 kts
2026-05-08 21:17 28.43767 -13.86618 43 ft 13 kts
2026-05-08 21:17 28.43864 -13.86616 46 ft 14 kts
2026-05-08 21:18 28.43962 -13.86614 50 ft 14 kts
2026-05-08 21:18 28.44057 -13.86610 54 ft 13 kts
2026-05-08 21:18 28.44148 -13.86606 57 ft 13 kts
2026-05-08 21:18 28.44236 -13.86603 61 ft 13 kts
2026-05-08 21:19 28.44333 -13.86599 63 ft 15 kts
2026-05-08 21:19 28.44454 -13.86595 67 ft 19 kts
2026-05-08 21:19 28.44597 -13.86591 66 ft 22 kts
2026-05-08 21:19 28.44756 -13.86586 82 ft 23 kts
2026-05-08 21:20 28.44849 -13.86604 94 ft 11 kts 310°
2026-05-08 21:20 28.44858 -13.86689 96 ft 12 kts 271°
2026-05-08 21:20 28.44912 -13.86749 99 ft 13 kts
2026-05-08 21:20 28.45007 -13.86746 98 ft 15 kts
2026-05-08 21:21 28.45114 -13.86742 99 ft 16 kts
2026-05-08 21:21 28.45227 -13.86739 99 ft 15 kts
2026-05-08 21:21 28.45332 -13.86736 98 ft 16 kts
2026-05-08 21:21 28.45417 -13.86733 101 ft 7 kts
2026-05-08 21:22 28.45435 -13.86758 99 ft 6 kts 271°
2026-05-08 21:22 28.45436 -13.86808 98 ft 5 kts 271°
2026-05-08 21:22 28.45436 -13.86824 98 ft 1 kts 271°
2026-05-08 21:22 28.45436 -13.86828 98 ft 0 kts 271°